Regional Weather Roundup
Issued by NWS

Home | Current Version | Previous Version | Graphics & Text | Print | Product List | Glossary On
Versions: 1 2 3 4 5 6 7 8 9 10 11 12 13 14 15 16 17 18 19 20 21 22 23 24 25 26 27 28 29 30 31 32 33 34 35 36 37 38 39 40 41 42 43 44 45 46 47 48 49 50
000
ASUS43 KBIS 271720
RWRND

NORTH DAKOTA REGIONAL WEATHER ROUNDUP
NATIONAL WEATHER SERVICE BISMARCK ND
1100 AM CST SAT DEC 27 2014

NOTE: "FAIR" INDICATES FEW OR NO CLOUDS BELOW 12,000 FEET WITH NO
SIGNIFICANT WEATHER AND/OR OBSTRUCTIONS TO VISIBILITY.


NDZ001>003-009>011-017-271800-
NORTHWEST NORTH DAKOTA

CITY           SKY/WX    TMP DP  RH WIND       PRES   REMARKS
WILLISTON      CLOUDY    20  15  81 W15       30.01R WCI   6
MINOT          CLOUDY    21  13  71 SW7       29.98F WCI  12
MINOT AFB      CLOUDY    20  17  88 W7        29.98F WCI  11
$$

NDZ018>021-031>035-040>046-271800-
SOUTHWEST NORTH DAKOTA

CITY           SKY/WX    TMP DP  RH WIND       PRES   REMARKS
BISMARCK       SUNNY     23  16  74 SW6       30.08F WCI  16
DICKINSON      MOSUNNY   23  15  71 SW18      29.99F WCI   9
GARRISON         N/A     22  19  89 W3        30.00F
HETTINGER ARPT SUNNY     22  15  75 W14       30.06S WCI   9
$$

NDZ004>008-012>016-024-026-027-054-271800-
NORTHEAST NORTH DAKOTA

CITY           SKY/WX    TMP DP  RH WIND       PRES   REMARKS
GRAND FORKS    LGT SNOW  12   9  85 S10       30.06F FOG     WCI  -1
GRND FRKS AFB  CLOUDY    14  12  92 S8        30.05F WCI   3
DEVILS LAKE    PTSUNNY   19  12  73 NW9       30.02R WCI   9
$$

NDZ022-023-025-028>030-036>039-047>053-271800-
SOUTHEAST NORTH DAKOTA

CITY           SKY/WX    TMP DP  RH WIND       PRES   REMARKS
FARGO          CLOUDY    13   8  81 S10       30.11F WCI   0
JAMESTOWN      MOSUNNY   19  14  81 W12       30.05F WCI   7
$$



USA.gov is the U.S. government's official web portal to all federal, state and local government web resources and services.